[[{"header":{"parameterUnit":"m.s-1","parameterCategory":2,"la1":30.2991,"la2":30.254,"lo1":-89.0895,"lo2":-89.0444,"dy":0.0017,"dx":0.0017,"nx":28,"ny":28,"refTime":"2024-07-23T21:00:00:Z","depth":"0","parameterNumber":2,"parameterNumberName":"U-component_of_CURRENTS"},"data":[0,0,0,0,0,0,0,0,0,0,0,0,0,0,0,0,0,0,0,0,0,0,0,0,0,0,0,0,0,0,0,0,0,0,0,0,0,0,0,0,0,0,0,0,0,0,0,0,0,0,0,0,0,0,0,0,0,0,0.2398,0.2399,0,0.2443,0.2444,0.2444,0.2439,0.2438,0.2437,0.2436,0.2507,0.251,0.2512,0,0,0,0,0,0,0,0,0,0,0,0,0,0.2511,0.2508,0.2398,0.2399,0.2399,0.2443,0.2444,0.2445,0.2439,0.2438,0.2437,0.2436,0.2506,0.2509,0.2512,0,0,0,0,0,0,0,0,0,0,0,0,0,0.25,0.2506,0.2398,0.2401,0.2402,0.2443,0.2444,0.2445,0.2439,0.2438,0.2437,0.2436,0.2505,0.2509,0.2513,0.2561,0,0,0.2525,0.2527,0,0,0,0,0,0,0,0,0.25,0.2495,0.24,0.2401,0.2402,0.2434,0.251,0.2485,0.2439,0.2426,0.2436,0.2435,0.2485,0.2491,0.2502,0.2564,0.2567,0.2525,0.2528,0.2529,0.253,0,0,0,0,0,0,0,0.25,0.2495,0.2417,0.2401,0.2402,0.247,0.2465,0.2506,0.2463,0.2427,0.2426,0.2431,0.2486,0.2499,0.2504,0.2568,0.2525,0.2529,0.2531,0.2533,0.2705,0.2707,0,0,0,0,0,0,0.2484,0.2494,0.2415,0.2418,0.2448,0.2468,0.2463,0.2425,0.2461,0.2466,0.2432,0.243,0.2493,0.25,0.2507,0.2624,0.2529,0.2533,0.2535,0.2702,0.2705,0.2708,0,0,0,0,0,0,0.2485,0.2474,0.2413,0.246,0.2457,0.2466,0.2425,0.2427,0.2441,0.2465,0.2469,0.2443,0.2492,0.2501,0.2556,0.2624,0.2535,0.2538,0.27,0.2703,0.2706,0.2822,0,0,0,0,0,0,0.2487,0.2474,0.2457,0.2457,0.2453,0.2464,0.2426,0.2428,0.2445,0.2443,0.2477,0.2482,0.2492,0.2551,0.256,0.2628,0.2541,0.2697,0.2701,0.2705,0.2815,0.2829,0.284,0,0,0,0,0,0.2491,0.2468,0.2455,0.2447,0.2422,0.2466,0.2473,0.2477,0.2447,0.2479,0.2488,0.2481,0.2584,0.2556,0.2567,0.2637,0.2695,0.27,0.2705,0.281,0.2826,0.284,0,0,0,0,0,0,0.2514,0.2465,0.2451,0.2414,0.2451,0.2465,0.2491,0.2483,0.2514,0.2506,0.2511,0.252,0.26,0.2594,0.2563,0.2696,0.2638,0.2646,0.2714,0.273,0.2742,0.2814,0.2545,0,0,0,0,0,0.2508,0.2472,0.2471,0.2452,0.2468,0.2479,0.2497,0.2501,0.2521,0.2532,0.2555,0.258,0.2631,0.2656,0.2699,0.2769,0.2813,0.2818,0.2831,0.2842,0.2907,0.3018,0.3048,0.2724,0.2724,0.2724,0,0,0.2514,0.2484,0.2465,0.2457,0.2478,0.2542,0.2488,0.2523,0.2584,0.2538,0.2624,0.2632,0.2659,0.2746,0.278,0.2748,0.2951,0.2848,0.2857,0.2918,0.3026,0.3059,0.3087,0.2727,0.2727,0.2726,0,0,0.2552,0.2485,0.2499,0.2534,0.2566,0.2583,0.2594,0.2623,0.2644,0.2714,0.2705,0.2765,0.2813,0.2875,0.2903,0.3012,0.3018,0.2995,0.3121,0.3226,0.3255,0.3281,0.3359,0.3391,0.2996,0.2997,0.2997,0,0.2575,0.2574,0.2526,0.2583,0.2628,0.2607,0.2689,0.2719,0.2765,0.2809,0.2758,0.2883,0.2899,0.3039,0.3076,0.3052,0.3089,0.3059,0.3248,0.3274,0.3299,0.3372,0.3406,0.3003,0.3002,0.3001,0.3001,0,0.2647,0.2669,0.2691,0.2742,0.2789,0.2848,0.2887,0.2936,0.2935,0.2971,0.3083,0.3101,0.3183,0.3184,0.3169,0.335,0.331,0.3254,0.3216,0.334,0.3407,0.344,0.3012,0.3009,0.3008,0.3006,0,0,0.2651,0.2727,0.2738,0.2809,0.2875,0.2927,0.3029,0.3133,0.3209,0.3244,0.3366,0.3447,0.3438,0.3473,0.3453,0.3542,0.3732,0.3478,0.3481,0.3569,0.3954,0.3834,0.3858,0.3695,0.3702,0.3707,0.3923,0,0.2743,0.2871,0.288,0.3037,0.3125,0.3147,0.325,0.3333,0.3376,0.3485,0.3521,0.3616,0.3549,0.358,0.3673,0.3718,0.3829,0.3679,0.3812,0.3817,0.3708,0.3898,0.3627,0.3789,0.3956,0.3961,0.3965,0,0.2838,0.2906,0.3064,0.3202,0.324,0.3323,0.347,0.3557,0.3685,0.3719,0.3814,0.3822,0.3978,0.3874,0.4075,0.3971,0.401,0.4028,0.4035,0.3924,0.3763,0.3697,0.3844,0.3711,0.4017,0.4012,0.4009,0,0.2912,0.3048,0.3172,0.3222,0.3365,0.3438,0.351,0.3635,0.372,0.3871,0.3936,0.4082,0.4148,0.4247,0.4266,0.4195,0.446,0.4354,0.4298,0.4286,0.4092,0.4052,0.4146,0.4553,0.4552,0.4552,0.4551,0,0.3026,0.3135,0.3208,0.3293,0.3439,0.3504,0.3663,0.3748,0.3874,0.3985,0.4055,0.4148,0.4245,0.4359,0.4383,0.4452,0.4561,0.4403,0.4372,0.4116,0.4078,0.3975,0.3917,0.456,0.4558,0.4556,0.4555,0,0.3134,0.3179,0.3338,0.346,0.3494,0.3602,0.3734,0.3824,0.3936,0.4082,0.4133,0.4263,0.4392,0.4472,0.4629,0.4581,0.4522,0.4655,0.4334,0.4261,0.4037,0.3993,0.4009,0.3913,0.4657,0.4656,0.4655,0,0.3208,0.3299,0.3442,0.3497,0.3555,0.368,0.3747,0.386,0.3932,0.4121,0.4181,0.4349,0.4413,0.4596,0.4557,0.4622,0.4504,0.4418,0.4251,0.4071,0.4,0.3863,0.3772,0.4033,0.4027,0.4022,0.4018,0,0.335,0.3395,0.3498,0.3595,0.3665,0.3751,0.3839,0.3898,0.4006,0.41,0.4202,0.4271,0.4385,0.4292,0.4357,0.4355,0.4164,0.4319,0.4232,0.3647,0.341,0.328,0.3832,0.3975,0.3979,0.3982,0.3984,0.3986,0.3432,0.351,0.3594,0.3675,0.3734,0.3756,0.3759,0.3826,0.3897,0.3914,0.4081,0.4049,0.4037,0.4051,0.4042,0.3805,0.388,0.3651,0.3656,0.3569,0.3351,0.381,0.3836,0.384,0.3843,0.3845,0.3848,0,0.3489,0.3547,0.3642,0.3692,0.3678,0.3722,0.3745,0.3672,0.3643,0.3707,0.3725,0.3615,0.3494,0.3467,0.3276,0.3145,0.3015,0.3074,0.2818,0.2798,0.3289,0.3129,0.2878,0.2878,0.2878,0.2879,0.2879,0.2879,0.3523,0.359,0.3609,0.3573,0.3571,0.3455,0.3407,0.3331,0.3312,0.315,0.3025,0.3027,0.3053,0.2929,0.2721,0.2656,0.2497,0.2337,0.2461,0.2765,0.2817,0.2867,0.2704,0.2369,0.2368,0.1783,0.1778,0.1775]},{"header":{"parameterUnit":"m.s-1","parameterCategory":2,"la1":30.2991,"la2":30.254,"lo1":-89.0895,"lo2":-89.0444,"dy":0.0017,"dx":0.0017,"nx":28,"ny":28,"refTime":"2024-07-23T21:00:00:Z","depth":"0","parameterNumber":3,"parameterNumberName":"V-component_of_CURRENTS"},"data":[0,0,0,0,0,0,0,0,0,0,0,0,0,0,0,0,0,0,0,0,0,0,0,0,0,0,0,0,0,0,0,0,0,0,0,0,0,0,0,0,0,0,0,0,0,0,0,0,0,0,0,0,0,0,0,0,0,0,-0.0108,-0.0108,0,-0.0138,-0.0138,-0.0138,-0.0164,-0.0164,-0.0165,-0.0165,-0.0178,-0.0178,-0.0177,0,0,0,0,0,0,0,0,0,0,0,0,0,-0.0051,-0.0052,-0.0107,-0.0108,-0.0109,-0.0138,-0.0138,-0.0138,-0.0164,-0.0164,-0.0165,-0.0165,-0.0178,-0.0178,-0.0177,0,0,0,0,0,0,0,0,0,0,0,0,0,-0.0076,-0.0052,-0.0107,-0.0126,-0.0128,-0.0138,-0.0138,-0.0138,-0.0164,-0.0164,-0.0165,-0.0165,-0.0178,-0.0178,-0.0177,-0.0165,0,0,-0.0177,-0.0177,0,0,0,0,0,0,0,0,-0.0075,-0.0078,-0.0123,-0.0125,-0.0127,-0.0149,-0.0123,-0.0147,-0.0163,-0.0148,-0.0165,-0.0166,-0.0167,-0.0168,-0.017,-0.0165,-0.0166,-0.0177,-0.0177,-0.0177,-0.0177,0,0,0,0,0,0,0,-0.0073,-0.0077,-0.0118,-0.0123,-0.0126,-0.0125,-0.013,-0.0127,-0.0152,-0.015,-0.0152,-0.0158,-0.0168,-0.017,-0.0171,-0.0166,-0.0177,-0.0177,-0.0177,-0.0177,-0.0106,-0.0104,0,0,0,0,0,0,-0.0073,-0.0075,-0.0117,-0.0119,-0.0103,-0.0126,-0.0131,-0.014,-0.0153,-0.0156,-0.0157,-0.0159,-0.017,-0.0171,-0.0171,-0.0117,-0.0177,-0.0177,-0.0177,-0.0108,-0.0105,-0.0103,0,0,0,0,0,0,-0.0071,-0.0076,-0.0116,-0.0099,-0.0104,-0.0127,-0.0137,-0.014,-0.0142,-0.0159,-0.0161,-0.0155,-0.0171,-0.0171,-0.0156,-0.012,-0.0177,-0.0177,-0.011,-0.0107,-0.0104,-0.0035,0,0,0,0,0,0,-0.007,-0.0076,-0.0076,-0.0099,-0.0105,-0.011,-0.0136,-0.0141,-0.0145,-0.0148,-0.0158,-0.016,-0.0171,-0.0156,-0.0156,-0.0121,-0.0177,-0.0112,-0.0109,-0.0105,-0.004,-0.003,-0.0022,0,0,0,0,0,-0.0068,-0.0065,-0.0075,-0.008,-0.0107,-0.0109,-0.0111,-0.0129,-0.0144,-0.0134,-0.0141,-0.0159,-0.0134,-0.0155,-0.0155,-0.0119,-0.0114,-0.011,-0.0106,-0.0044,-0.0032,-0.0022,0,0,0,0,0,0,-0.0039,-0.0068,-0.008,-0.0087,-0.0092,-0.0114,-0.0108,-0.0123,-0.0122,-0.0123,-0.0143,-0.0144,-0.0114,-0.0125,-0.0148,-0.0086,-0.0124,-0.0119,-0.0076,-0.0066,-0.0057,-0.0024,-0.0177,0,0,0,0,0,-0.0034,-0.0039,-0.0062,-0.0063,-0.0066,-0.0086,-0.0089,-0.0099,-0.0106,-0.0107,-0.0113,-0.0111,-0.0096,-0.009,-0.0082,-0.0054,-0.0059,-0.0027,-0.0019,-0.0011,0.0017,0.0043,0.0056,-0.009,-0.009,-0.009,0,0,-0.0024,-0.0039,-0.0043,-0.0057,-0.0064,-0.0046,-0.0088,-0.0086,-0.0065,-0.0106,-0.0076,-0.0082,-0.0082,-0.0046,-0.0033,-0.0052,0.0023,-0.0006,0.0,0.0025,0.0048,0.0063,0.0075,-0.0087,-0.0087,-0.0088,0,0,0.0009,-0.0018,-0.0003,-0.0002,-0.0008,-0.0016,-0.0013,-0.0026,-0.0027,-0.0004,-0.0021,0.0004,0.0008,0.0031,0.0039,0.0104,0.0068,0.0095,0.0167,0.019,0.0203,0.0214,0.0201,0.021,0.01,0.01,0.01,0,0.0026,0.0037,0.0005,0.0029,0.0037,0.0002,0.0034,0.0034,0.0031,0.0045,0.0018,0.0069,0.0058,0.0127,0.0143,0.0128,0.0113,0.0122,0.0202,0.0213,0.0223,0.0207,0.0217,0.0104,0.0103,0.0103,0.0103,0,0.0078,0.009,0.0101,0.012,0.0127,0.0145,0.0138,0.015,0.0139,0.0144,0.0196,0.0194,0.0226,0.0226,0.02,0.0274,0.0229,0.0207,0.0173,0.0241,0.022,0.0229,0.0109,0.0108,0.0107,0.0106,0,0,0.0113,0.0133,0.0141,0.0162,0.0174,0.0183,0.0222,0.025,0.0288,0.0294,0.0359,0.038,0.0372,0.0383,0.0363,0.0385,0.0422,0.0323,0.0322,0.0308,0.0443,0.0404,0.0408,0.04,0.0403,0.0405,0.039,0,0.0169,0.0221,0.0223,0.0284,0.0306,0.0297,0.0339,0.0361,0.0375,0.043,0.0444,0.0496,0.0432,0.0455,0.0468,0.0451,0.0451,0.0426,0.0383,0.0382,0.0338,0.0421,0.0413,0.04,0.0398,0.04,0.0401,0,0.0231,0.0251,0.0308,0.0353,0.0365,0.0401,0.0455,0.0491,0.0551,0.0568,0.0621,0.0624,0.0682,0.0608,0.0617,0.0596,0.0524,0.0494,0.0492,0.0447,0.0362,0.0338,0.0415,0.0271,0.0413,0.0412,0.0411,0,0.0258,0.032,0.036,0.0374,0.0418,0.0449,0.048,0.0534,0.0587,0.0668,0.073,0.0769,0.0819,0.0765,0.0692,0.0651,0.0686,0.0619,0.0514,0.0507,0.0493,0.0483,0.0433,0.061,0.061,0.061,0.061,0,0.0309,0.0347,0.0375,0.0394,0.046,0.0481,0.057,0.0603,0.0698,0.0804,0.0806,0.091,0.086,0.0866,0.0755,0.0681,0.0729,0.0557,0.0524,0.0513,0.0505,0.0372,0.03,0.061,0.061,0.061,0.061,0,0.0329,0.035,0.0396,0.0444,0.0468,0.0512,0.0618,0.0697,0.0769,0.0917,0.0957,0.1037,0.1059,0.0979,0.0917,0.0781,0.0624,0.0639,0.0614,0.0579,0.0332,0.0266,0.0216,0.0164,0.053,0.053,0.0529,0,0.0342,0.0363,0.0419,0.0461,0.0486,0.0562,0.0633,0.0718,0.0821,0.1007,0.1099,0.117,0.1256,0.1148,0.0946,0.0768,0.0623,0.0588,0.0518,0.035,0.0251,0.0202,0.0158,0.0509,0.0508,0.0507,0.0507,0,0.036,0.0375,0.0412,0.0494,0.0568,0.0666,0.078,0.0873,0.1015,0.116,0.1354,0.1441,0.1352,0.1213,0.0953,0.0807,0.05,0.0568,0.0423,0.0273,0.0192,0.0115,0.0451,0.0502,0.0502,0.0503,0.0503,0.0503,0.0373,0.0408,0.0464,0.0553,0.0643,0.0786,0.0894,0.1049,0.1242,0.149,0.1538,0.1704,0.1439,0.1118,0.089,0.0442,0.046,0.0279,0.0221,0.0192,0.0128,0.0438,0.0432,0.0432,0.0432,0.0432,0.0432,0,0.0401,0.0455,0.0533,0.0654,0.0776,0.0817,0.1013,0.1156,0.1407,0.1617,0.1796,0.1769,0.1436,0.1052,0.045,0.0137,0.0043,-0.0023,-0.0095,-0.0116,0.0185,0.0168,0.0071,0.0071,0.0071,0.0071,0.0071,0.0071,0.0424,0.0504,0.0557,0.0759,0.0858,0.1045,0.117,0.1384,0.1565,0.1836,0.1943,0.1995,0.17,0.0673,-0.0027,-0.0177,-0.0361,-0.0405,-0.0488,-0.0306,-0.0283,-0.0261,-0.0294,-0.0487,-0.0488,-0.0761,-0.0764,-0.0767]}],[{"header":{"parameterUnit":"m.s-1","parameterCategory":2,"la1":30.2991,"la2":30.254,"lo1":-89.0895,"lo2":-89.0444,"dy":0.0017,"dx":0.0017,"nx":28,"ny":28,"refTime":"2024-07-23T21:00:00:Z","depth":"2","parameterNumber":2,"parameterNumberName":"U-component_of_CURRENTS"},"data":[0,0,0,0,0,0,0,0,0,0,0,0,0,0,0,0,0,0,0,0,0,0,0,0,0,0,0,0,0,0,0,0,0,0,0,0,0,0,0,0,0,0,0,0,0,0,0,0,0,0,0,0,0,0,0,0,0,0,0.1873,0.1873,0,0.1907,0.1908,0.1908,0.1918,0.1918,0.1918,0.1918,0.1962,0.1964,0.1965,0,0,0,0,0,0,0,0,0,0,0,0,0,0.1863,0.1863,0.1873,0.1873,0.1874,0.1907,0.1908,0.1909,0.1918,0.1918,0.1918,0.1918,0.1962,0.1964,0.1965,0,0,0,0,0,0,0,0,0,0,0,0,0,0.188,0.1863,0.1873,0.1882,0.1883,0.1907,0.1908,0.1909,0.1919,0.1918,0.1918,0.1917,0.1961,0.1963,0.1966,0.1987,0,0,0.1972,0.1973,0,0,0,0,0,0,0,0,0.1879,0.188,0.188,0.1882,0.1883,0.1907,0.1921,0.1935,0.1919,0.1906,0.1918,0.1917,0.1945,0.1948,0.1957,0.1989,0.1991,0.1972,0.1974,0.1975,0.1975,0,0,0,0,0,0,0,0.1878,0.1879,0.1888,0.1881,0.1882,0.19,0.1902,0.1924,0.1928,0.1907,0.1908,0.191,0.1946,0.1955,0.1958,0.1992,0.1972,0.1974,0.1976,0.1976,0.2105,0.2107,0,0,0,0,0,0,0.1869,0.1878,0.1886,0.1889,0.1879,0.1901,0.1903,0.1901,0.1928,0.1931,0.1911,0.1911,0.1951,0.1955,0.1959,0.2056,0.1975,0.1977,0.1978,0.2103,0.2105,0.2107,0,0,0,0,0,0,0.1869,0.187,0.1885,0.1884,0.1887,0.1901,0.1899,0.1902,0.1916,0.193,0.1934,0.1922,0.1951,0.1956,0.1993,0.2055,0.1978,0.198,0.21,0.2103,0.2106,0.2205,0,0,0,0,0,0,0.1869,0.1869,0.1871,0.1883,0.1886,0.191,0.1899,0.1902,0.1917,0.1917,0.1941,0.1944,0.1951,0.199,0.1995,0.2057,0.1981,0.2097,0.2101,0.2105,0.2199,0.2211,0.2221,0,0,0,0,0,0.1868,0.1868,0.1871,0.1873,0.1886,0.1911,0.1915,0.1924,0.1918,0.1934,0.195,0.1944,0.202,0.1993,0.1999,0.2063,0.2095,0.21,0.2105,0.2194,0.2209,0.2221,0,0,0,0,0,0,0.186,0.1869,0.1873,0.1874,0.1897,0.1912,0.1927,0.1929,0.1954,0.1959,0.1963,0.1969,0.2033,0.2025,0.1996,0.211,0.206,0.2066,0.2126,0.214,0.2151,0.2201,0.1983,0,0,0,0,0,0.186,0.1868,0.1882,0.1888,0.1899,0.1915,0.1926,0.1937,0.1956,0.1966,0.1989,0.2016,0.2057,0.2077,0.2108,0.216,0.2187,0.2206,0.2217,0.2227,0.2272,0.2356,0.238,0.2123,0.2123,0.2123,0,0,0.1864,0.1867,0.1874,0.1889,0.1906,0.1952,0.1922,0.1949,0.1998,0.1969,0.2043,0.2057,0.2079,0.215,0.2178,0.215,0.2311,0.2233,0.2241,0.2282,0.2364,0.2389,0.2412,0.2126,0.2126,0.2125,0,0,0.189,0.1876,0.1905,0.1938,0.1968,0.1975,0.1985,0.2016,0.2039,0.21,0.2105,0.216,0.2202,0.2252,0.2275,0.2366,0.2369,0.2363,0.2464,0.2544,0.2566,0.2587,0.2639,0.2663,0.2367,0.2367,0.2367,0,0.19,0.1922,0.1919,0.1974,0.1995,0.1992,0.2039,0.2078,0.2123,0.2161,0.2138,0.2273,0.2269,0.2396,0.2419,0.2399,0.2428,0.2408,0.2561,0.2582,0.2601,0.265,0.2676,0.2372,0.2372,0.2371,0.2371,0,0.1966,0.1992,0.2012,0.2074,0.2103,0.2134,0.2181,0.223,0.2243,0.2287,0.2407,0.2435,0.2521,0.2523,0.2493,0.2638,0.2608,0.2566,0.253,0.2634,0.2677,0.2702,0.238,0.2378,0.2376,0.2375,0,0,0.1968,0.2038,0.2051,0.2096,0.2147,0.2185,0.2269,0.2339,0.2419,0.2494,0.2607,0.2691,0.2719,0.2749,0.2747,0.2808,0.2934,0.2744,0.2745,0.2803,0.3103,0.2952,0.2963,0.2914,0.292,0.2924,0.3074,0,0.2015,0.212,0.2124,0.2225,0.2285,0.2306,0.2386,0.2469,0.2523,0.264,0.2724,0.2834,0.2804,0.2853,0.2923,0.2932,0.3008,0.2897,0.2991,0.2994,0.2853,0.299,0.2699,0.2798,0.3098,0.3102,0.3105,0,0.2085,0.2141,0.2236,0.2315,0.2337,0.2398,0.251,0.2581,0.2734,0.2784,0.2932,0.2994,0.3147,0.3074,0.3237,0.3166,0.3161,0.3161,0.3165,0.3018,0.289,0.2747,0.2831,0.3146,0.3143,0.314,0.3137,0,0.2106,0.2214,0.2277,0.2317,0.2417,0.2464,0.2509,0.2643,0.2724,0.2902,0.3007,0.3175,0.329,0.3349,0.3375,0.3313,0.3514,0.3419,0.3302,0.3289,0.3061,0.3019,0.355,0.355,0.3549,0.3549,0.3549,0,0.2127,0.2195,0.2312,0.2349,0.2458,0.2517,0.2622,0.2703,0.2848,0.2967,0.3105,0.3251,0.3365,0.3488,0.3462,0.3482,0.3605,0.3374,0.3342,0.308,0.304,0.3349,0.3324,0.3555,0.3553,0.3552,0.3551,0,0.2132,0.2193,0.2306,0.2424,0.2466,0.2561,0.2669,0.2754,0.2903,0.3073,0.3151,0.3363,0.3479,0.3573,0.3656,0.3598,0.3609,0.3576,0.325,0.3176,0.3303,0.3281,0.3468,0.3464,0.3461,0.3458,0.3456,0,0.2128,0.2191,0.2362,0.2423,0.2465,0.2591,0.2653,0.2775,0.286,0.3124,0.3208,0.3412,0.3471,0.3577,0.3493,0.3462,0.3562,0.321,0.3032,0.3357,0.3308,0.329,0.3273,0.2771,0.2763,0.2757,0.2752,0,0.2129,0.2211,0.229,0.2428,0.2511,0.2608,0.2708,0.2763,0.291,0.3049,0.3185,0.3252,0.3333,0.316,0.316,0.3095,0.3182,0.3077,0.3569,0.281,0.2705,0.2654,0.266,0.2697,0.2702,0.2706,0.2709,0.2712,0.2148,0.2205,0.2313,0.2437,0.2539,0.2598,0.2585,0.266,0.2741,0.2829,0.2984,0.2961,0.2964,0.2745,0.266,0.261,0.2796,0.2687,0.2705,0.273,0.2597,0.2489,0.2416,0.242,0.2423,0.2426,0.2428,0,0.215,0.2211,0.2302,0.2413,0.2466,0.2546,0.2601,0.2511,0.2487,0.2569,0.2592,0.2338,0.2222,0.2254,0.2055,0.2033,0.2002,0.1981,0.1929,0.1985,0.2034,0.1864,0.1491,0.1488,0.1485,0.1483,0,0,0.2167,0.2213,0.2245,0.2324,0.2377,0.2332,0.2312,0.2192,0.2174,0.2043,0.1999,0.2099,0.2168,0.1799,0.1738,0.1595,0.1779,0.1525,0.2275,0.227,0.2317,0.2438,0.2238,0,0,0,0,0]},{"header":{"parameterUnit":"m.s-1","parameterCategory":2,"la1":30.2991,"la2":30.254,"lo1":-89.0895,"lo2":-89.0444,"dy":0.0017,"dx":0.0017,"nx":28,"ny":28,"refTime":"2024-07-23T21:00:00:Z","depth":"2","parameterNumber":3,"parameterNumberName":"V-component_of_CURRENTS"},"data":[0,0,0,0,0,0,0,0,0,0,0,0,0,0,0,0,0,0,0,0,0,0,0,0,0,0,0,0,0,0,0,0,0,0,0,0,0,0,0,0,0,0,0,0,0,0,0,0,0,0,0,0,0,0,0,0,0,0,-0.0098,-0.0098,0,-0.0122,-0.0122,-0.0122,-0.0143,-0.0144,-0.0144,-0.0144,-0.016,-0.016,-0.016,0,0,0,0,0,0,0,0,0,0,0,0,0,-0.0028,-0.003,-0.0098,-0.0098,-0.0098,-0.0122,-0.0122,-0.0122,-0.0143,-0.0144,-0.0144,-0.0144,-0.016,-0.016,-0.016,0,0,0,0,0,0,0,0,0,0,0,0,0,-0.0055,-0.003,-0.0098,-0.0113,-0.0114,-0.0122,-0.0122,-0.0122,-0.0143,-0.0144,-0.0144,-0.0145,-0.0159,-0.016,-0.016,-0.0149,0,0,-0.016,-0.016,0,0,0,0,0,0,0,0,-0.0053,-0.0057,-0.011,-0.0112,-0.0114,-0.0131,-0.0103,-0.0131,-0.0143,-0.0131,-0.0144,-0.0145,-0.015,-0.0151,-0.0152,-0.015,-0.0151,-0.016,-0.016,-0.016,-0.016,0,0,0,0,0,0,0,-0.0052,-0.0056,-0.0106,-0.0111,-0.0113,-0.0104,-0.0109,-0.0108,-0.0136,-0.0132,-0.0134,-0.0138,-0.0151,-0.0152,-0.0153,-0.0151,-0.016,-0.016,-0.016,-0.016,-0.013,-0.0129,0,0,0,0,0,0,-0.0053,-0.0055,-0.0105,-0.0107,-0.0086,-0.0105,-0.011,-0.0124,-0.0136,-0.0139,-0.0138,-0.0139,-0.0152,-0.0153,-0.0153,-0.0129,-0.016,-0.016,-0.016,-0.0131,-0.0129,-0.0129,0,0,0,0,0,0,-0.0052,-0.0058,-0.0104,-0.0081,-0.0087,-0.0106,-0.0121,-0.0124,-0.0126,-0.0141,-0.0143,-0.0136,-0.0152,-0.0153,-0.0148,-0.0131,-0.016,-0.016,-0.0132,-0.013,-0.0129,-0.0089,0,0,0,0,0,0,-0.005,-0.0057,-0.0061,-0.0082,-0.0089,-0.01,-0.0121,-0.0124,-0.0128,-0.013,-0.014,-0.0142,-0.0153,-0.0147,-0.0148,-0.0131,-0.016,-0.0133,-0.0131,-0.0129,-0.0092,-0.0087,-0.0083,0,0,0,0,0,-0.0047,-0.0051,-0.0062,-0.0067,-0.0096,-0.0099,-0.0101,-0.0115,-0.0128,-0.012,-0.013,-0.0142,-0.0137,-0.0147,-0.0147,-0.0131,-0.0133,-0.0131,-0.013,-0.0094,-0.0088,-0.0083,0,0,0,0,0,0,-0.0025,-0.0055,-0.0066,-0.008,-0.0085,-0.0103,-0.0099,-0.0111,-0.0113,-0.0115,-0.0132,-0.0134,-0.0122,-0.0131,-0.0141,-0.0116,-0.0136,-0.0135,-0.0109,-0.0104,-0.0099,-0.0086,-0.016,0,0,0,0,0,-0.0022,-0.0033,-0.0054,-0.0062,-0.0065,-0.0081,-0.0083,-0.0092,-0.01,-0.0102,-0.0111,-0.0116,-0.0114,-0.0113,-0.0113,-0.01,-0.0105,-0.0088,-0.0084,-0.008,-0.0069,-0.0049,-0.0041,-0.0122,-0.0122,-0.0122,0,0,-0.0017,-0.0033,-0.004,-0.0057,-0.0064,-0.0055,-0.0083,-0.0082,-0.0075,-0.0102,-0.0091,-0.01,-0.0107,-0.0093,-0.0088,-0.0098,-0.0065,-0.0078,-0.0074,-0.0065,-0.0046,-0.0038,-0.0031,-0.0121,-0.0121,-0.0121,0,0,0.0002,-0.0023,-0.0018,-0.0017,-0.0024,-0.0034,-0.0032,-0.0044,-0.005,-0.004,-0.0059,-0.0052,-0.0054,-0.0052,-0.0053,-0.0021,-0.0041,-0.0026,0.0009,0.0028,0.0035,0.0041,0.0023,0.0027,-0.0023,-0.0023,-0.0023,0,0.0013,0.0013,-0.0013,0.0002,0.0005,-0.0021,-0.0003,-0.0009,-0.0017,-0.002,-0.0029,-0.0013,-0.0029,-0.0002,-0.0001,-0.0009,-0.0016,-0.0013,0.0034,0.004,0.0046,0.0026,0.003,-0.0021,-0.0021,-0.0021,-0.0022,0,0.0042,0.0047,0.0054,0.0059,0.006,0.0072,0.0058,0.0055,0.0042,0.0037,0.0059,0.0055,0.0065,0.0059,0.0032,0.0066,0.004,0.0037,0.0021,0.0057,0.0033,0.0037,-0.0018,-0.0019,-0.0019,-0.002,0,0,0.0057,0.007,0.0077,0.0088,0.0092,0.0093,0.0101,0.01,0.0112,0.0113,0.0151,0.0138,0.0138,0.0138,0.0123,0.013,0.014,0.0095,0.0095,0.0077,0.0156,0.0114,0.0113,0.0146,0.0147,0.0149,0.0115,0,0.0093,0.0123,0.0125,0.016,0.0171,0.0156,0.0167,0.0161,0.0161,0.0192,0.0192,0.0228,0.017,0.0192,0.0188,0.0174,0.0156,0.0148,0.0124,0.0123,0.0082,0.0119,0.0116,0.0086,0.0119,0.0119,0.012,0,0.013,0.0141,0.0174,0.0197,0.0203,0.022,0.0228,0.024,0.0259,0.0265,0.0298,0.0313,0.0338,0.0293,0.0275,0.0273,0.0205,0.0179,0.0178,0.0132,0.009,0.006,0.0091,0.0125,0.0125,0.0124,0.0124,0,0.014,0.0181,0.0203,0.0212,0.023,0.0238,0.0249,0.0257,0.0294,0.0333,0.0398,0.0403,0.047,0.0399,0.0336,0.0307,0.0316,0.0273,0.0162,0.0157,0.0148,0.014,0.0237,0.0237,0.0237,0.0237,0.0237,0,0.0172,0.0192,0.0209,0.0219,0.0253,0.0257,0.0307,0.0306,0.0375,0.0474,0.0453,0.0568,0.0506,0.0513,0.0388,0.0303,0.0353,0.0177,0.0159,0.0158,0.0152,0.0185,0.018,0.0235,0.0236,0.0236,0.0236,0,0.0176,0.0191,0.0215,0.0239,0.0256,0.0275,0.0358,0.0414,0.0455,0.0603,0.0643,0.0719,0.0721,0.0619,0.0539,0.0407,0.03,0.0239,0.0223,0.0204,0.01,0.0097,0.011,0.0108,0.0107,0.0106,0.0105,0,0.0182,0.0192,0.0224,0.0263,0.028,0.0327,0.0386,0.0437,0.0538,0.072,0.0829,0.0883,0.0945,0.0788,0.0558,0.0326,0.0303,0.0167,0.0102,0.0112,0.0093,0.0092,0.0091,0.0093,0.0092,0.0091,0.0091,0,0.0194,0.0197,0.0223,0.0297,0.0363,0.0452,0.0558,0.0666,0.0791,0.0925,0.114,0.1203,0.1047,0.0853,0.052,0.0354,0.02,0.0142,0.0204,0.0122,0.0093,0.0075,0.0075,0.0084,0.0085,0.0085,0.0086,0.0086,0.0207,0.0237,0.0287,0.0367,0.0456,0.0624,0.0743,0.0895,0.1092,0.1315,0.1344,0.1388,0.1141,0.0702,0.0441,0.0142,0.0145,0.0028,0.0032,0.0036,0.0037,0.0008,-0.002,-0.002,-0.0019,-0.0019,-0.0019,0,0.0262,0.0308,0.0376,0.0508,0.0655,0.0681,0.0903,0.1043,0.1316,0.1407,0.1525,0.1278,0.1028,0.0723,0.0269,0.0011,-0.0009,-0.0067,-0.0032,-0.0024,-0.0017,-0.0018,-0.009,-0.0091,-0.0091,-0.0092,0,0,0.0299,0.0389,0.0438,0.0688,0.0802,0.1016,0.1171,0.1343,0.1432,0.154,0.1506,0.1419,0.1074,0.0734,0.0397,0.0156,0.0121,0.0099,0.0178,0.0266,0.0276,0.0054,0.0063,0,0,0,0,0]}],[{"header":{"parameterUnit":"m.s-1","parameterCategory":2,"la1":30.2991,"la2":30.254,"lo1":-89.0895,"lo2":-89.0444,"dy":0.0017,"dx":0.0017,"nx":28,"ny":28,"refTime":"2024-07-23T21:00:00:Z","depth":"4","parameterNumber":2,"parameterNumberName":"U-component_of_CURRENTS"},"data":[0,0,0,0,0,0,0,0,0,0,0,0,0,0,0,0,0,0,0,0,0,0,0,0,0,0,0,0,0,0,0,0,0,0,0,0,0,0,0,0,0,0,0,0,0,0,0,0,0,0,0,0,0,0,0,0,0,0,0.1047,0.1047,0,0.105,0.105,0.105,0.1048,0.1048,0.1048,0.1048,0.1056,0.1056,0.1056,0,0,0,0,0,0,0,0,0,0,0,0,0,0.0987,0.0988,0.1047,0.1047,0.1048,0.105,0.105,0.105,0.1048,0.1048,0.1048,0.1048,0.1056,0.1056,0.1056,0,0,0,0,0,0,0,0,0,0,0,0,0,0.1001,0.0989,0.1047,0.105,0.105,0.105,0.105,0.105,0.1048,0.1048,0.1048,0.1049,0.1056,0.1056,0.1056,0.1049,0,0,0.1056,0.1056,0,0,0,0,0,0,0,0,0.1,0.1003,0.1049,0.1049,0.105,0.1052,0.1032,0.1051,0.1048,0.1045,0.1048,0.1049,0.1057,0.1057,0.1052,0.105,0.105,0.1056,0.1056,0.1056,0.1056,0,0,0,0,0,0,0,0.0999,0.1002,0.1045,0.1049,0.105,0.1033,0.1035,0.1035,0.1047,0.1045,0.1046,0.1052,0.1057,0.1052,0.1052,0.105,0.1056,0.1056,0.1056,0.1056,0.1152,0.1155,0,0,0,0,0,0,0.1008,0.1002,0.1045,0.1045,0.1029,0.1034,0.1037,0.1048,0.1046,0.1047,0.1051,0.1052,0.1052,0.1052,0.1052,0.1106,0.1056,0.1056,0.1056,0.115,0.1153,0.1156,0,0,0,0,0,0,0.1007,0.1012,0.1045,0.1026,0.1029,0.1036,0.1048,0.1048,0.107,0.1052,0.1052,0.1077,0.1052,0.1052,0.1079,0.1104,0.1056,0.1056,0.1147,0.1151,0.1154,0.1175,0,0,0,0,0,0,0.1005,0.1012,0.1035,0.1027,0.1031,0.106,0.1048,0.1048,0.1073,0.1074,0.1073,0.1073,0.1052,0.1079,0.1079,0.1104,0.1056,0.1143,0.1148,0.1153,0.1171,0.1179,0.1186,0,0,0,0,0,0.1003,0.1025,0.1036,0.1042,0.1059,0.1061,0.1062,0.1064,0.1075,0.1085,0.1093,0.1074,0.111,0.108,0.1079,0.1105,0.1141,0.1147,0.1153,0.1168,0.1177,0.1186,0,0,0,0,0,0,0.1006,0.1027,0.1039,0.1066,0.1074,0.1063,0.1077,0.1084,0.1097,0.1108,0.1092,0.1092,0.113,0.1125,0.1093,0.1155,0.1129,0.1135,0.1141,0.115,0.1157,0.1155,0.1056,0,0,0,0,0,0.1021,0.1047,0.1056,0.108,0.1088,0.1092,0.11,0.1104,0.1109,0.1117,0.1117,0.1131,0.115,0.1156,0.1167,0.1189,0.1205,0.1215,0.1223,0.1228,0.1232,0.1313,0.1327,0.1175,0.1174,0.1174,0,0,0.1026,0.1045,0.1058,0.1084,0.1091,0.1099,0.1097,0.1117,0.1123,0.1116,0.1135,0.1157,0.1166,0.1193,0.121,0.119,0.1277,0.1236,0.124,0.124,0.132,0.1335,0.1348,0.1178,0.1178,0.1177,0,0,0.1032,0.107,0.1085,0.1094,0.1117,0.1125,0.1141,0.1148,0.1154,0.1187,0.1184,0.1221,0.125,0.1246,0.1253,0.1314,0.1319,0.1337,0.1358,0.1437,0.145,0.1461,0.1473,0.1485,0.1333,0.1333,0.1333,0,0.104,0.1055,0.1089,0.1097,0.1095,0.1142,0.1135,0.1158,0.1174,0.1179,0.1206,0.1269,0.1273,0.1294,0.1321,0.1325,0.1363,0.1313,0.1445,0.1456,0.1468,0.1477,0.149,0.1335,0.1335,0.1334,0.1334,0,0.1041,0.1057,0.1065,0.1094,0.1104,0.1111,0.1136,0.1166,0.1206,0.1225,0.1279,0.1306,0.1344,0.136,0.1361,0.1434,0.1431,0.1447,0.1412,0.1484,0.1489,0.1502,0.1337,0.1337,0.1336,0.1336,0,0,0.1043,0.1059,0.1065,0.1047,0.1093,0.1086,0.1127,0.1151,0.1179,0.1245,0.1281,0.1335,0.1381,0.1395,0.1407,0.1471,0.157,0.1503,0.1506,0.1495,0.172,0.1567,0.1566,0.163,0.1633,0.1636,0.168,0,0.1028,0.1008,0.1037,0.1022,0.0998,0.1048,0.1074,0.1113,0.1177,0.1239,0.1304,0.1362,0.1385,0.1424,0.1497,0.1572,0.1613,0.1554,0.1669,0.167,0.1512,0.158,0.1646,0.169,0.1693,0.1695,0.1696,0,0.1003,0.0991,0.0946,0.094,0.094,0.0963,0.1,0.1031,0.1142,0.1204,0.1302,0.1371,0.1472,0.1498,0.1652,0.1629,0.1676,0.1721,0.1725,0.1585,0.1544,0.1615,0.172,0.1718,0.1717,0.1715,0.1714,0,0.0906,0.0921,0.0867,0.0862,0.0882,0.0891,0.0937,0.1022,0.1066,0.1201,0.1288,0.1404,0.151,0.1611,0.1717,0.1715,0.1882,0.188,0.1761,0.1748,0.186,0.1847,0.1971,0.1971,0.1971,0.197,0.197,0,0.0824,0.079,0.0829,0.0781,0.077,0.0822,0.0858,0.0919,0.1062,0.1148,0.1276,0.1378,0.1568,0.1681,0.1741,0.1792,0.1903,0.1768,0.1764,0.1863,0.1851,0.1866,0.1854,0.1972,0.1972,0.1971,0.1971,0,0.0676,0.0703,0.0639,0.0669,0.0698,0.0684,0.082,0.088,0.1019,0.1151,0.121,0.1415,0.1571,0.1682,0.1848,0.1814,0.1865,0.1836,0.1899,0.1897,0.1663,0.1651,0.1713,0.1708,0.1704,0.1701,0.1698,0,0.0579,0.0532,0.053,0.0538,0.0556,0.0605,0.0674,0.0831,0.0921,0.1162,0.1224,0.142,0.1543,0.1652,0.1761,0.1814,0.1796,0.1772,0.1742,0.1654,0.1645,0.1639,0.1633,0.1692,0.1691,0.169,0.1689,0,0.0406,0.0412,0.0378,0.0394,0.0451,0.0507,0.0627,0.0695,0.0912,0.1046,0.1236,0.1335,0.149,0.1604,0.1643,0.1679,0.1771,0.173,0.1738,0.1711,0.1629,0.1622,0.1621,0.1675,0.1677,0.1678,0.1679,0,0.0302,0.0257,0.0254,0.0271,0.0351,0.0429,0.0492,0.0662,0.078,0.1067,0.1124,0.1338,0.1505,0.1531,0.1575,0.1591,0.1573,0.1509,0.1529,0.1545,0.1466,0.1336,0.1296,0,0,0,0,0,0.0209,0.0174,0.0162,0.0198,0.0288,0.0347,0.0489,0.0585,0.0806,0.0913,0.1029,0.1169,0.1293,0.1378,0.1365,0.1453,0.154,0.1422,0.1467,0.1599,0.1614,0.1536,0,0,0,0,0,0,0.0144,0.0122,0.0118,0.0172,0.0215,0.0325,0.0425,0.0562,0.0633,0.0846,0.0927,0.1062,0.1194,0.1305,0.1339,0.1356,0.1348,0.1529,0.1524,0.1589,0.1604,0.1617,0.1541,0,0,0,0,0]},{"header":{"parameterUnit":"m.s-1","parameterCategory":2,"la1":30.2991,"la2":30.254,"lo1":-89.0895,"lo2":-89.0444,"dy":0.0017,"dx":0.0017,"nx":28,"ny":28,"refTime":"2024-07-23T21:00:00:Z","depth":"4","parameterNumber":3,"parameterNumberName":"V-component_of_CURRENTS"},"data":[0,0,0,0,0,0,0,0,0,0,0,0,0,0,0,0,0,0,0,0,0,0,0,0,0,0,0,0,0,0,0,0,0,0,0,0,0,0,0,0,0,0,0,0,0,0,0,0,0,0,0,0,0,0,0,0,0,0,-0.002,-0.002,0,-0.0023,-0.0023,-0.0023,-0.0026,-0.0027,-0.0027,-0.0027,-0.0028,-0.0028,-0.0027,0,0,0,0,0,0,0,0,0,0,0,0,0,0.003,0.0029,-0.002,-0.0021,-0.0021,-0.0023,-0.0023,-0.0023,-0.0026,-0.0027,-0.0027,-0.0027,-0.0028,-0.0028,-0.0027,0,0,0,0,0,0,0,0,0,0,0,0,0,0.0018,0.0028,-0.002,-0.0024,-0.0025,-0.0023,-0.0023,-0.0023,-0.0026,-0.0027,-0.0027,-0.0027,-0.0028,-0.0028,-0.0027,-0.0018,0,0,-0.0026,-0.0026,0,0,0,0,0,0,0,0,0.0018,0.0016,-0.0024,-0.0024,-0.0025,-0.0027,-0.0006,-0.0022,-0.0026,-0.0023,-0.0027,-0.0028,-0.0028,-0.0028,-0.0025,-0.0018,-0.0018,-0.0026,-0.0026,-0.0026,-0.0026,0,0,0,0,0,0,0,0.0019,0.0016,-0.0019,-0.0024,-0.0025,-0.001,-0.0012,-0.0008,-0.0022,-0.0024,-0.0025,-0.0028,-0.0028,-0.0025,-0.0025,-0.0018,-0.0026,-0.0026,-0.0026,-0.0026,-0.0027,-0.0027,0,0,0,0,0,0,0.0013,0.0017,-0.0019,-0.0019,-0.0006,-0.0011,-0.0013,-0.0024,-0.0022,-0.0023,-0.0028,-0.0028,-0.0025,-0.0025,-0.0025,-0.0021,-0.0026,-0.0026,-0.0026,-0.0027,-0.0027,-0.0027,0,0,0,0,0,0,0.0014,0.0009,-0.0019,-0.0002,-0.0005,-0.0012,-0.0023,-0.0024,-0.0022,-0.0026,-0.0026,-0.0026,-0.0026,-0.0025,-0.0024,-0.0021,-0.0026,-0.0025,-0.0026,-0.0027,-0.0027,-0.0009,0,0,0,0,0,0,0.0015,0.001,0.0005,-0.0003,-0.0007,-0.0014,-0.0023,-0.0024,-0.0025,-0.0025,-0.0024,-0.0025,-0.0026,-0.0024,-0.0023,-0.0021,-0.0025,-0.0026,-0.0026,-0.0027,-0.001,-0.0009,-0.0009,0,0,0,0,0,0.0017,0.0011,0.0004,0.0,-0.0015,-0.0014,-0.0013,-0.0017,-0.0024,-0.0018,-0.0023,-0.0025,-0.0027,-0.0024,-0.0023,-0.002,-0.0026,-0.0026,-0.0027,-0.001,-0.0009,-0.0009,0,0,0,0,0,0,0.0028,0.0009,0.0002,-0.0011,-0.0011,-0.0015,-0.0011,-0.0016,-0.0015,-0.0016,-0.0022,-0.0022,-0.0022,-0.0025,-0.0022,-0.0024,-0.0029,-0.0029,-0.0016,-0.0015,-0.0015,-0.0006,-0.0025,0,0,0,0,0,0.0027,0.0019,0.0007,-0.0001,-0.0001,-0.0006,-0.0005,-0.0008,-0.001,-0.001,-0.0012,-0.0017,-0.0023,-0.0022,-0.0024,-0.002,-0.0031,-0.002,-0.002,-0.0019,-0.0013,-0.0027,-0.0027,-0.0029,-0.0029,-0.0029,0,0,0.0029,0.0018,0.0013,0.0002,0.0001,0.0012,-0.0006,-0.0002,0.0005,-0.001,-0.0,-0.0013,-0.0022,-0.002,-0.0021,-0.0021,-0.0028,-0.002,-0.0019,-0.0013,-0.0027,-0.0027,-0.0027,-0.0029,-0.0029,-0.0029,0,0,0.0039,0.002,0.0024,0.0028,0.0027,0.0025,0.0025,0.0023,0.0019,0.0023,0.0009,-0.0004,-0.0002,-0.0012,-0.0017,-0.0015,-0.0026,-0.0018,-0.0004,-0.0017,-0.0017,-0.0017,-0.0042,-0.0045,-0.0016,-0.0016,-0.0016,0,0.0044,0.005,0.0027,0.0041,0.0056,0.0032,0.0057,0.0045,0.0043,0.0043,0.0029,0.0015,0.0002,-0.0002,-0.0007,-0.0013,-0.0025,-0.0003,-0.0016,-0.0016,-0.0016,-0.0042,-0.0044,-0.0015,-0.0015,-0.0015,-0.0015,0,0.0064,0.0077,0.0083,0.0092,0.01,0.0119,0.0105,0.0103,0.0091,0.008,0.0069,0.0043,0.0037,0.0022,0.0008,-0.0001,-0.0012,-0.0014,-0.0015,-0.0014,-0.0042,-0.0045,-0.0014,-0.0014,-0.0014,-0.0014,0,0,0.0062,0.0094,0.0099,0.0132,0.0138,0.0153,0.0154,0.0158,0.0164,0.0133,0.014,0.0102,0.0077,0.0069,0.0042,0.0021,-0.0005,0.0004,0.0003,-0.0017,-0.0042,-0.0054,-0.0058,-0.0006,-0.0006,-0.0006,-0.0065,0,0.0096,0.0151,0.0148,0.0208,0.0246,0.0232,0.0245,0.0237,0.0215,0.0208,0.0153,0.0148,0.0097,0.0096,0.0061,0.0019,-0.001,0.0011,-0.0043,-0.0045,-0.0051,-0.0061,-0.0007,-0.0068,-0.0068,-0.0069,-0.0069,0,0.0124,0.0167,0.0243,0.0299,0.0311,0.0339,0.0365,0.0369,0.0332,0.0312,0.0273,0.0226,0.0178,0.014,0.0054,0.0071,0.0016,-0.0026,-0.0029,-0.0045,-0.0062,-0.0066,-0.0075,-0.0075,-0.0074,-0.0074,-0.0073,0,0.0174,0.0231,0.0306,0.0328,0.038,0.0411,0.0427,0.0412,0.0425,0.038,0.0378,0.0299,0.0275,0.019,0.0072,0.0073,-0.0026,-0.003,-0.0097,-0.0099,-0.0078,-0.0077,-0.0086,-0.0086,-0.0086,-0.0086,-0.0085,0,0.0228,0.0284,0.0343,0.0395,0.0477,0.0482,0.0551,0.0533,0.0528,0.0541,0.0443,0.0425,0.0289,0.0202,0.0095,-0.002,-0.0011,-0.0097,-0.0112,-0.0072,-0.007,-0.0081,-0.008,-0.0088,-0.0087,-0.0087,-0.0087,0,0.0278,0.032,0.0413,0.0489,0.0516,0.0577,0.0644,0.0678,0.0653,0.0664,0.0653,0.0534,0.0413,0.026,0.0117,0.0025,-0.0089,-0.0133,-0.0092,-0.0104,-0.0159,-0.0156,-0.0198,-0.0198,-0.0199,-0.02,-0.02,0,0.0313,0.0373,0.0484,0.0541,0.0586,0.0674,0.0733,0.075,0.0763,0.0723,0.0716,0.0608,0.0508,0.029,0.0127,-0.008,-0.011,-0.017,-0.0159,-0.0158,-0.0169,-0.0165,-0.0162,-0.0201,-0.0202,-0.0202,-0.0202,0,0.0384,0.0425,0.0502,0.0616,0.0706,0.0795,0.0856,0.0873,0.087,0.0861,0.0771,0.0639,0.0496,0.0298,0.0128,-0.002,-0.0131,-0.0178,-0.0177,-0.0167,-0.0163,-0.0173,-0.0168,-0.0204,-0.0204,-0.0204,-0.0204,0,0.0427,0.0487,0.0583,0.0676,0.0792,0.0864,0.0899,0.0907,0.0932,0.0854,0.0831,0.0661,0.0566,0.0329,0.0172,0.002,-0.0009,-0.0049,-0.0055,-0.0055,-0.0003,0.0023,0.0027,0,0,0,0,0,0.0459,0.052,0.0619,0.0731,0.0839,0.0898,0.0954,0.0964,0.0957,0.0907,0.0864,0.0721,0.0483,0.0369,0.0219,0.0158,-0.0038,-0.0023,-0.0088,-0.0218,-0.0215,-0.0181,0,0,0,0,0,0,0.0485,0.0579,0.0628,0.0763,0.0826,0.0949,0.0988,0.0976,0.0924,0.0882,0.0751,0.0694,0.0454,0.0575,0.022,0.0173,0.0113,-0.0134,-0.0137,-0.022,-0.0217,-0.0215,-0.0179,0,0,0,0,0]}]]